Theta_e
310 307 307 307 307 307 307 307 302 298 299 298 299 301 301 301 301 300 299 302 302 301 301 302 302 304 308 311 315 316 317 316 317 320 320 322 322 321
306 305 305 305 305 308 309 305 305 303 298 298 297 299 300 302 303 300 299 303 302 300 300 301 301 302 304 306 312 312 313 314 317 318 317 318 319 318
305 305 305 307 306 306 304 303 303 302 299 298 297 298 298 299 300 300 301 297 297 300 299 299 300 300 301 303 306 309 310 312 313 314 315 316 317 318
303 302 303 303 302 303 302 301 300 300 298 297 293 293 296 296 298 297 298 298 297 300 300 299 299 299 299 300 304 305 306 306 308 310 312 313 314 315
301 301 302 301 300 299 299 297 297 299 298 298 295 293 294 294 296 295 293 292 297 300 299 299 299 298 299 300 302 304 303 302 304 304 304 305 308 309
301 301 299 300 299 298 297 296 296 295 296 297 293 290 291 293 294 292 293 293 293 296 299 297 299 300 299 300 301 302 302 301 300 300 299 298 300 303
300 299 299 299 298 297 298 297 295 296 295 293 289 288 287 288 288 292 291 291 291 292 293 295 297 298 300 299 302 302 301 300 299 298 298 298 299 300
297 297 297 296 295 294 293 294 296 297 294 292 291 289 288 290 290 290 289 287 287 291 289 290 293 292 294 302 300 299 299 298 298 298 298 297 297 297
295 295 294 295 294 296 294 292 291 292 289 294 292 290 288 289 289 287 288 288 287 288 288 286 289 289 293 296 297 297 297 297 297 297 296 295 294 294
293 292 291 291 292 292 291 292 294 294 292 291 292 292 291 291 292 291 290 286 287 287 287 283 286 287 291 294 296 297 296 296 295 295 294 293 293 292
292 291 292 291 292 292 290 289 289 288 291 292 292 291 291 291 291 288 285 286 284 284 285 284 284 285 285 287 293 295 295 294 294 293 293 292 292 291
291 291 290 291 290 289 290 289 287 288 287 286 287 289 291 291 289 290 288 286 283 283 285 284 284 285 283 284 289 293 292 292 292 292 292 292 291 289
288 287 287 288 289 289 289 289 289 289 286 287 286 286 286 287 287 288 289 288 285 284 286 286 283 283 282 282 284 289 290 291 291 291 291 291 290 289
286 286 287 288 289 289 288 288 288 286 286 285 285 284 284 285 286 286 287 288 287 287 287 286 284 283 282 282 281 285 287 289 289 287 288 289 289 288
286 286 287 288 288 286 287 287 286 286 285 285 284 284 285 286 286 287 286 286 286 286 287 287 285 286 287 283 282 283 284 284 286 286 286 285 284 284
285 285 285 284 285 286 285 285 286 286 286 285 285 285 285 285 285 286 285 285 284 283 285 286 287 287 284 285 285 283 284 281 284 284 284 283 283 284
285 285 285 285 284 284 284 284 285 285 285 285 285 284 285 285 284 286 285 284 283 282 282 284 284 285 285 286 283 283 282 283 284 283 283 281 282 282
284 284 284 285 284 284 283 283 283 284 285 285 285 285 284 285 284 285 285 284 283 282 282 283 283 283 284 284 286 282 282 283 283 284 283 281 280 281
283 284 284 285 284 284 284 283 283 284 285 285 285 285 285 285 285 284 284 284 283 283 283 283 283 282 279 277 281 285 282 283 283 282 283 282 281 280
283 283 284 284 284 284 284 283 283 284 284 285 285 285 285 285 284 284 283 283 283 283 282 283 283 283 281 279 278 281 285 283 283 282 281 280 282 283
283 283 283 284 284 284 284 284 285 284 285 285 285 285 285 285 284 284 284 283 282 282 281 282 283 283 284 283 279 279 282 285 285 283 281 280 278 278
283 283 283 283 284 284 285 285 285 284 284 285 285 285 285 285 285 284 284 283 283 282 281 283 283 283 281 281 278 279 280 280 284 284 284 281 278 276
283 283 283 283 283 284 284 284 284 284 284 284 284 285 285 285 285 285 285 284 283 283 282 282 283 282 279 280 280 279 279 279 280 279 280 283 283 283
Wind_Speed
6 6 4 4 4 4 4 4 3 10 8 4 2 4 4 3 4 4 5 6 6 7 8 12 15 15 16 17 19 17 17 15 22 19 19 21 24 24
4 6 5 3 4 4 5 4 3 4 12 3 4 4 3 3 4 4 5 6 7 7 7 12 13 18 16 16 18 15 16 13 3 18 20 23 23 23
6 6 6 4 4 4 4 3 3 3 9 4 1 1 2 3 3 3 4 5 5 10 9 10 14 15 15 15 14 14 12 12 9 19 16 19 24 24
7 6 7 4 6 5 2 3 3 4 3 10 2 2 5 2 3 4 3 3 4 9 13 11 17 15 14 16 18 14 13 8 16 18 21 22 26 26
7 7 6 7 6 2 1 3 3 3 3 4 4 1 1 1 2 2 4 4 6 11 12 14 18 18 15 13 14 17 16 14 21 22 18 19 22 23
5 6 6 6 5 1 2 4 4 4 4 4 2 2 2 2 0 3 6 3 5 6 7 10 14 14 15 14 15 17 20 18 18 22 20 20 23 27
5 4 5 4 5 5 3 4 4 5 2 2 1 0 1 1 1 2 5 6 3 3 5 4 4 4 5 10 13 21 24 24 22 21 24 25 27 28
6 5 5 7 3 3 7 9 6 4 5 4 3 4 4 3 1 2 3 2 3 2 3 4 5 3 3 5 11 20 25 24 23 26 28 28 28 28
5 4 5 3 3 3 5 6 6 9 7 3 4 5 3 4 3 2 3 2 2 3 2 3 5 3 4 4 19 25 25 30 29 28 28 30 30 29
5 5 3 3 4 4 2 4 4 4 5 4 5 4 4 4 4 3 2 2 1 2 3 2 4 5 7 6 15 21 27 31 31 30 29 29 29 30
3 2 1 3 4 1 3 4 5 4 3 8 7 6 6 7 4 4 2 3 0 1 3 2 2 5 7 7 4 18 27 26 30 29 29 29 29 28
1 2 4 5 5 6 4 4 5 6 4 3 2 4 5 3 6 4 4 4 2 1 1 2 0 2 4 4 5 8 13 27 29 28 29 31 28 14
3 3 2 5 5 6 6 5 6 4 4 4 2 1 1 2 2 2 4 3 3 1 4 2 2 2 4 3 4 5 11 12 13 17 24 24 23 20
3 1 2 8 9 9 5 8 9 5 4 3 3 3 2 2 2 2 3 3 2 2 7 1 3 2 4 4 4 4 7 9 12 10 10 14 18 19
2 5 7 9 9 7 8 8 7 4 4 3 4 3 2 3 4 3 4 6 6 6 3 2 3 7 5 5 6 4 8 4 8 10 9 9 8 8
2 2 3 5 5 4 2 4 5 5 5 4 3 3 3 3 2 2 3 4 5 4 6 6 6 7 7 7 9 7 8 5 7 8 8 8 6 5
1 1 1 1 2 2 1 2 3 4 4 4 4 4 4 4 2 3 3 2 4 4 4 5 7 7 6 9 8 8 7 9 7 9 8 7 5 5
2 2 1 2 3 2 3 2 2 4 4 4 5 5 5 5 4 2 3 3 6 5 6 6 8 7 5 8 7 9 6 8 7 8 8 7 5 4
2 2 2 3 2 3 3 3 4 4 4 5 5 6 5 5 6 4 4 5 5 5 5 5 6 8 6 3 2 1 8 8 8 7 6 3 5 6
2 3 2 2 2 1 1 2 3 4 4 5 5 5 6 6 6 7 6 5 6 5 5 4 5 6 5 7 5 2 8 9 8 8 5 3 5 13
3 2 3 2 1 1 1 2 3 4 5 5 5 5 6 6 6 6 6 8 8 5 7 6 4 7 8 6 4 4 4 9 8 9 8 6 4 3
2 2 2 2 2 2 2 3 3 3 4 4 5 5 5 6 7 7 7 8 7 6 4 5 7 7 3 3 5 8 5 4 8 10 11 8 7 7
2 2 1 1 1 2 2 3 3 4 4 4 4 5 6 6 5 7 7 7 7 7 8 6 5 3 2 5 8 8 9 8 6 6 5 7 8 6
Wind_Direction
183 169 167 182 179 211 221 208 222 295 292 219 216 244 254 255 252 248 240 251 275 286 296 299 303 300 285 280 234 223 234 252 272 213 200 205 140 138
173 152 179 172 218 221 230 201 194 256 291 157 231 240 258 276 273 260 277 283 287 274 294 285 289 296 289 291 217 217 231 237 182 136 132 131 142 150
150 165 207 205 222 217 205 181 210 216 266 302 220 252 270 264 312 302 285 290 290 280 275 288 284 287 287 279 238 191 198 206 173 148 135 144 133 134
165 180 214 210 208 198 124 233 240 234 257 279 233 249 220 255 253 269 284 273 283 296 292 288 289 290 277 278 219 176 161 168 144 135 137 135 124 129
181 193 204 193 199 117 218 247 246 246 230 260 277 253 322 344 336 311 284 310 299 293 288 282 288 279 273 258 214 170 159 158 147 134 129 124 126 127
174 194 198 197 106 186 231 235 237 233 218 251 271 286 239 285 220 282 295 297 292 297 281 281 272 271 266 240 188 167 154 146 123 123 120 115 113 110
191 198 210 141 129 207 198 233 226 249 195 197 193 338 254 312 218 260 283 296 288 277 302 293 284 261 254 214 189 167 152 136 126 118 120 118 117 116
189 192 185 129 169 256 233 223 224 237 220 189 194 201 226 223 204 262 267 294 313 26 324 330 353 354 341 198 169 152 142 125 123 124 124 120 117 117
196 185 212 142 165 221 261 262 256 235 221 208 215 203 216 208 185 223 242 258 264 336 24 352 349 358 357 64 141 138 129 127 127 125 125 124 120 115
196 191 166 206 225 217 288 317 255 226 215 214 220 222 226 208 205 199 222 129 43 28 20 51 330 23 22 25 96 119 125 124 128 126 125 124 119 117
188 162 199 271 268 238 232 238 250 245 232 232 226 236 240 244 192 139 155 169 187 358 26 97 343 59 38 12 75 119 119 126 124 126 124 122 117 113
117 313 277 241 258 236 220 212 233 239 168 205 208 245 238 183 190 195 165 198 140 128 191 99 44 66 65 2 24 120 113 120 117 120 121 120 117 114
186 233 274 277 260 264 226 224 231 179 181 183 170 162 181 123 147 200 198 193 154 128 174 127 127 93 71 116 35 68 109 109 114 115 118 118 124 126
192 163 244 262 274 271 261 235 226 164 140 149 159 162 168 137 139 177 183 133 107 156 150 143 118 133 115 98 97 60 83 109 114 112 112 106 112 126
158 195 254 269 265 273 261 246 190 156 151 155 183 171 154 138 123 147 91 89 75 94 88 104 111 124 122 117 133 131 119 68 114 120 117 117 119 126
183 242 242 251 228 236 250 214 176 161 168 170 149 138 128 124 125 140 146 124 105 77 56 75 110 127 109 120 130 124 127 136 134 126 119 109 112 128
133 147 189 242 236 225 192 191 139 143 156 149 146 155 147 142 135 146 139 132 118 131 111 83 78 73 66 131 129 133 125 129 135 132 124 122 120 133
148 204 224 233 241 218 187 156 132 169 168 155 151 160 158 159 154 145 151 124 130 131 131 130 118 103 91 44 65 130 118 136 134 137 134 132 127 133
170 197 243 246 240 223 181 159 169 187 163 159 157 165 154 160 160 164 156 141 138 138 140 142 141 141 133 110 75 78 134 144 139 140 138 121 148 158
180 215 227 240 213 218 191 178 159 163 175 163 156 166 162 164 166 168 167 156 149 141 144 150 151 159 143 155 142 127 156 141 155 151 130 76 73 126
207 205 213 216 191 188 198 202 180 186 174 163 162 168 167 165 172 165 159 151 144 147 158 165 146 101 107 95 87 131 149 164 157 159 141 130 122 128
204 206 213 204 194 189 194 197 186 179 168 166 166 166 167 173 173 167 164 159 163 157 143 129 134 140 119 111 134 142 143 142 170 171 172 133 157 195
214 197 232 236 189 192 195 194 191 177 168 164 164 169 168 175 173 172 167 160 157 151 146 148 147 124 110 132 139 149 156 155 157 161 173 187 167 223